This is the latest recevied weather packets stored in our database for station/object K3MV-13. If no packets are shown the sender has not sent any weather packets the latest 10 day(s).
| Time | Temp. | Humidity | Pressure | Rain* | Wind** | Luminosity | Snow |
|---|---|---|---|---|---|---|---|
| 1777834971 | 11.67° C | 39% | 1015.5 hPa | 0 mm | - | 102 W/m² | - |
| 1777834668 | 12.22° C | 39% | 1015.5 hPa | 0 mm | - | 162 W/m² | - |
| 1777834364 | 12.22° C | 40% | 1015.6 hPa | 0 mm | - | 347 W/m² | - |
| 1777834058 | 12.22° C | 41% | 1015.5 hPa | 0 mm | - | 632 W/m² | - |
| 1777833755 | 12.22° C | 41% | 1015.8 hPa | 0 mm | - | 128 W/m² | - |
| 1777833451 | 12.22° C | 44% | 1015.8 hPa | 0 mm | - | 787 W/m² | - |
| 1777833149 | 11.67° C | 42% | 1015.6 hPa | 0 mm | - | 575 W/m² | - |
| 1777832847 | 11.67° C | 41% | 1015.8 hPa | 0 mm | - | 797 W/m² | - |
| 1777832546 | 11.67° C | 42% | 1015.7 hPa | 0 mm | - | 811 W/m² | - |
| 1777832242 | 11.67° C | 40% | 1015.6 hPa | 0 mm | - | 801 W/m² | - |
| 1777831939 | 11.67° C | 42% | 1016 hPa | 0 mm | - | 854 W/m² | - |
| 1777831635 | 11.67° C | 43% | 1016 hPa | 0 mm | - | 841 W/m² | - |
| 1777831334 | 11.67° C | 42% | 1016.1 hPa | 0 mm | - | 829 W/m² | - |
| 1777831030 | 11.11° C | 41% | 1016 hPa | 0 mm | - | 850 W/m² | - |
| 1777830728 | 11.67° C | 42% | 1016.1 hPa | 0 mm | - | 878 W/m² | - |
| 1777830424 | 11.11° C | 47% | 1015.9 hPa | 0 mm | - | 860 W/m² | - |
| 1777830121 | 11.11° C | 41% | 1016.1 hPa | 0 mm | - | 887 W/m² | - |
| 1777829816 | 11.11° C | 41% | 1016.1 hPa | 0 mm | - | 871 W/m² | - |
| 1777829512 | 10.56° C | 44% | 1016.4 hPa | 0 mm | - | 862 W/m² | - |
| 1777829209 | 10.56° C | 42% | 1016.3 hPa | 0 mm | - | 500 W/m² | - |
| 1777828907 | 10.56° C | 43% | 1016.3 hPa | 0 mm | - | 948 W/m² | - |
| 1777828603 | 10.56° C | 42% | 1016.1 hPa | 0 mm | - | 174 W/m² | - |
| 1777828301 | 11.11° C | 42% | 1016.4 hPa | 0 mm | - | 491 W/m² | - |
| 1777827998 | 11.67° C | 43% | 1016.5 hPa | 0 mm | - | 827 W/m² | - |
| 1777827695 | 11.11° C | 46% | 1016.5 hPa | 0 mm | - | 861 W/m² | - |
* Rain latest hour (hover to see other rain measurements)
** Current wind speed in m/s (hover to see current wind gust speed)